Von / Nach
Hinflug - Rückflug
Erwachsene / Kinder
Promocode
Nächste Ankünfte Flughafen St.Gallen-Altenrhein

ZeitErw.vonFlugInfo
09:1009:20WienPE101
gelandet
20:5520:55WienPE107
planmässig
Nächste Abflüge Flughafen St.Gallen-Altenrhein

ZeitGeplantnachFlugInfo
06:3006:40WienPE100
abgeflogen
18:1018:10WienPE106
planmässig

Flugplan

Bitte wählen Sie Ihren gewünschten Abflug- und Zielflughafen aus.


Live aus Altenrhein
LIVE
LSZR 190820Z VRB02KT CAVOK 20/18 Q1018 NOSIG RMK E
Zeitraffer heute
2019-08-19 00:14:23
LSZR 182150Z AUTO 28006KT 9999 R10/0750U FEW060CB BKN080 22/19 Q1013
Zeitraffer gestern
2019-08-18 00:13:55
LSZR 172150Z AUTO 08003KT CAVOK 19/16 Q1013

Wien

Samstags-Special: Altenrhein-Wien für EUR 89.-.

 

Jetzt buchen

Menorca

Ab EUR 299.- hin & zurück.

 

Jetzt buchen

Kalabrien

Ab EUR 329.- hin & zurück.

 

Jetzt buchen

Ibiza

Ab EUR 279.- hin & zurück.

 

Jetzt buchen

Mallorca

Ab EUR 349.- hin & zurück.

 

Jetzt buchen

General Aviation

Business & General Aviation LSZR.

 

More information

Klimaneutrales Fliegen
Fliegen Sie mit People's CO2 klimaneutral !


 

 Shuttlebus


Nutzen Sie unseren

Shuttlebus zwischen Altenrhein

und Dornbirn & Bregenz.

 

Mehr dazu

 

People's Online-Shop


Von der Überraschung an

Bord über Badetücher bis

zum Flugzeugmodell.

 

Mehr dazu


News


Aktuelles von People's

und dem Flughafen

St.Gallen-Altenrhein.

 

Mehr dazu

 

Ad-hoc Charter


Chartern Sie eine unserer

Embraer170 für Ihren eigenen

Anlass oder ACMI-Einsätze.


Mehr dazu

  

 

Teile dein People's-Erlebnis mit uns:

 

#peoplesairline bei Instagram